| time (UTC) | temp F | wind direction | speed knots | gust knots | rain 1hr in | rain 24hr in | rain mn in | humidity % | barometer mb |
| 20260904160304 | 79 | 177 | 5.2 | 8.7 | 0.00 | 0.00 | 0.00 | 29 | 999.9 |
| 20260904154804 | 77 | 154 | 4.3 | 7.8 | 0.00 | 0.00 | 0.00 | 31 | 999.8 |
| 20260904154304 | 76 | 176 | 5.2 | 10.4 | 0.00 | 0.00 | 0.00 | 32 | 999.8 |
| 20260904153804 | 76 | 152 | 5.2 | 8.7 | 0.00 | 0.00 | 0.00 | 34 | 999.7 |
| 20260904153304 | 75 | 161 | 6.1 | 12.2 | 0.00 | 0.00 | 0.00 | 33 | 999.7 |
| 20260904152804 | 75 | 151 | 4.3 | 10.4 | 0.00 | 0.00 | 0.00 | 33 | 999.7 |
| 20260904152306 | 75 | 161 | 6.1 | 11.3 | 0.00 | 0.00 | 0.00 | 36 | 999.7 |
| 20260904151804 | 74 | 132 | 5.2 | 7.8 | 0.00 | 0.00 | 0.00 | 35 | 999.7 |
| 20260904151303 | 74 | 147 | 3.5 | 6.1 | 0.00 | 0.00 | 0.00 | 38 | 999.8 |
| 20260904150304 | 73 | 162 | 2.6 | 5.2 | 0.00 | 0.00 | 0.00 | 38 | 999.8 |
| 20260904145804 | 72 | 179 | 5.2 | 7.0 | 0.00 | 0.00 | 0.00 | 37 | 999.8 |
| 20260904144804 | 71 | 165 | 3.5 | 6.1 | 0.00 | 0.00 | 0.00 | 38 | 999.8 |
| 20260904142306 | 69 | 169 | 2.6 | 4.3 | 0.00 | 0.00 | 0.00 | 47 | 999.6 |
| 20260904141804 | 68 | 207 | 2.6 | 5.2 | 0.00 | 0.00 | 0.00 | 47 | 999.6 |
| 20260904141305 | 67 | 168 | 2.6 | 4.3 | 0.00 | 0.00 | 0.00 | 50 | 999.7 |
| 20260904140804 | 67 | 150 | 0.9 | 2.6 | 0.00 | 0.00 | 0.00 | 51 | 999.7 |
| 20260904140305 | 66 | 168 | 1.7 | 4.3 | 0.00 | 0.00 | 0.00 | 52 | 999.5 |
| 20260904135306 | 65 | 183 | 1.7 | 2.6 | 0.00 | 0.00 | 0.00 | 52 | 999.3 |
| 20260904133804 | 64 | 165 | 2.6 | 6.1 | 0.00 | 0.00 | 0.00 | 53 | 999.3 |
| 20260904133305 | 63 | 192 | 2.6 | 4.3 | 0.00 | 0.00 | 0.00 | 54 | 999.2 |
| 20260904132306 | 62 | 172 | 1.7 | 5.2 | 0.00 | 0.00 | 0.00 | 60 | 999.2 |
| 20260904131805 | 60 | 159 | 0.0 | 1.7 | 0.00 | 0.00 | 0.00 | 63 | 999.2 |
| 20260904130805 | 60 | 193 | 0.0 | 1.7 | 0.00 | 0.00 | 0.00 | 64 | 999.2 |
| 20260904130304 | 59 | 193 | 0.9 | 1.7 | 0.00 | 0.00 | 0.00 | 65 | 999.1 |
| 20260904125306 | 59 | 193 | 0.0 | 0.0 | 0.00 | 0.00 | 0.00 | 65 | 998.8 |
| 20260904123805 | 59 | 193 | 0.9 | 2.6 | 0.00 | 0.00 | 0.00 | 65 | 998.7 |
| 20260904123304 | 59 | 193 | 1.7 | 1.7 | 0.00 | 0.00 | 0.00 | 66 | 998.6 |
| 20260904121805 | 59 | 200 | 0.9 | 1.7 | 0.00 | 0.00 | 0.00 | 65 | 998.6 |
| 20260904120305 | 60 | 200 | 0.9 | 1.7 | 0.00 | 0.00 | 0.00 | 62 | 998.4 |
| 20260904113805 | 59 | 199 | 0.9 | 2.6 | 0.00 | 0.00 | 0.00 | 65 | 998.3 |
| 20260904112805 | 59 | 225 | 1.7 | 2.6 | 0.00 | 0.00 | 0.00 | 66 | 998.2 |
| 20260904111805 | 59 | 242 | 1.7 | 2.6 | 0.00 | 0.00 | 0.00 | 65 | 998.2 |
| 20260904111305 | 59 | 242 | 0.0 | 1.7 | 0.00 | 0.00 | 0.00 | 64 | 998.0 |
| 20260904110805 | 59 | 242 | 0.9 | 1.7 | 0.00 | 0.00 | 0.00 | 64 | 997.9 |
| 20260904105805 | 60 | 242 | 0.9 | 1.7 | 0.00 | 0.00 | 0.00 | 62 | 998.0 |
| 20260904104305 | 61 | 242 | 0.0 | 0.0 | 0.00 | 0.00 | 0.00 | 59 | 997.9 |
| 20260904103305 | 61 | 242 | 0.9 | 1.7 | 0.00 | 0.00 | 0.00 | 58 | 997.7 |
| 20260904102306 | 62 | 242 | 0.9 | 1.7 | 0.00 | 0.00 | 0.00 | 56 | 997.6 |
| 20260904101804 | 62 | 242 | 0.9 | 1.7 | 0.00 | 0.00 | 0.00 | 56 | 997.6 |
| 20260904101304 | 63 | 242 | 0.0 | 0.9 | 0.00 | 0.00 | 0.00 | 55 | 997.4 |
| 20260904100805 | 62 | 242 | 0.9 | 1.7 | 0.00 | 0.00 | 0.00 | 55 | 997.4 |
| 20260904095805 | 61 | 252 | 0.0 | 1.7 | 0.00 | 0.00 | 0.00 | 57 | 997.4 |
| 20260904093305 | 62 | 252 | 0.0 | 1.7 | 0.00 | 0.00 | 0.00 | 55 | 997.3 |
| 20260904092805 | 62 | 252 | 0.9 | 1.7 | 0.00 | 0.00 | 0.00 | 55 | 997.3 |
| 20260904090305 | 64 | 285 | 0.9 | 2.6 | 0.00 | 0.00 | 0.00 | 52 | 997.1 |
| 20260904083804 | 63 | 315 | 1.7 | 2.6 | 0.00 | 0.00 | 0.00 | 54 | 997.0 |
| 20260904083305 | 63 | 304 | 1.7 | 4.3 | 0.00 | 0.00 | 0.00 | 56 | 997.0 |
| 20260904081304 | 63 | 215 | 0.0 | 0.0 | 0.00 | 0.00 | 0.00 | 56 | 996.9 |
| 20260904075804 | 63 | 215 | 0.9 | 1.7 | 0.00 | 0.00 | 0.00 | 54 | 996.9 |
| 20260904072804 | 65 | 200 | 1.7 | 2.6 | 0.00 | 0.00 | 0.00 | 51 | 997.1 |
| 20260904071305 | 66 | 0 | 0.0 | 1.7 | 0.00 | 0.00 | 0.00 | 50 | 997.0 |
| 20260904070805 | 66 | 0 | 0.9 | 2.6 | 0.00 | 0.00 | 0.00 | 50 | 997.1 |
| 20260904065805 | 66 | 127 | 2.6 | 4.3 | 0.00 | 0.00 | 0.00 | 50 | 997.1 |
| 20260904064804 | 67 | 163 | 1.7 | 2.6 | 0.00 | 0.00 | 0.00 | 48 | 997.3 |
| 20260904064304 | 67 | 181 | 0.0 | 0.0 | 0.00 | 0.00 | 0.00 | 48 | 997.1 |
| 20260904063805 | 68 | 144 | 1.7 | 2.6 | 0.00 | 0.00 | 0.00 | 47 | 997.3 |
| 20260904063305 | 67 | 180 | 0.0 | 0.9 | 0.00 | 0.00 | 0.00 | 48 | 997.2 |
| 20260904062805 | 68 | 180 | 0.9 | 1.7 | 0.00 | 0.00 | 0.00 | 47 | 997.2 |
| 20260904061304 | 69 | 177 | 0.9 | 4.3 | 0.00 | 0.00 | 0.00 | 45 | 997.2 |
| 20260904060816 | 69 | 245 | 1.7 | 4.3 | 0.00 | 0.00 | 0.00 | 45 | 997.2 |
| 20260904054804 | 70 | 197 | 1.7 | 4.3 | 0.00 | 0.00 | 0.00 | 42 | 997.4 |
| 20260904053804 | 70 | 172 | 1.7 | 2.6 | 0.00 | 0.00 | 0.00 | 43 | 997.3 |
| 20260904053305 | 71 | 175 | 1.7 | 4.3 | 0.00 | 0.00 | 0.00 | 43 | 997.3 |
| 20260904052804 | 71 | 182 | 3.5 | 5.2 | 0.00 | 0.00 | 0.00 | 43 | 997.3 |
| 20260904052307 | 71 | 156 | 1.7 | 7.0 | 0.00 | 0.00 | 0.00 | 42 | 997.3 |
| 20260904051805 | 71 | 144 | 3.5 | 7.0 | 0.00 | 0.00 | 0.00 | 41 | 997.2 |
| 20260904051305 | 71 | 129 | 6.1 | 10.4 | 0.00 | 0.00 | 0.00 | 42 | 997.0 |
| 20260904050805 | 71 | 134 | 5.2 | 7.8 | 0.00 | 0.02 | 0.00 | 41 | 996.9 |
| 20260904045804 | 73 | 143 | 2.6 | 4.3 | 0.00 | 0.12 | 0.00 | 39 | 996.8 |
| 20260904045307 | 73 | 191 | 1.7 | 4.3 | 0.00 | 0.13 | 0.00 | 38 | 996.7 |
| 20260904044805 | 72 | 200 | 2.6 | 5.2 | 0.00 | 0.13 | 0.00 | 39 | 996.5 |
| 20260904043804 | 73 | 229 | 2.6 | 6.1 | 0.00 | 0.13 | 0.00 | 38 | 996.4 |
| 20260904042805 | 73 | 274 | 3.5 | 7.0 | 0.00 | 0.13 | 0.00 | 38 | 996.4 |
| 20260904042306 | 73 | 245 | 3.5 | 6.1 | 0.00 | 0.13 | 0.00 | 38 | 996.5 |
| 20260904040805 | 73 | 241 | 3.5 | 6.1 | 0.00 | 0.13 | 0.00 | 39 | 996.6 |
| 20260904040304 | 73 | 202 | 2.6 | 6.1 | 0.00 | 0.13 | 0.00 | 39 | 996.6 |
| 20260904035804 | 73 | 254 | 3.5 | 6.1 | 0.00 | 0.13 | 0.00 | 38 | 996.6 |
| 20260904035306 | 72 | 244 | 2.6 | 5.2 | 0.00 | 0.13 | 0.00 | 37 | 996.7 |
| 20260904034805 | 72 | 259 | 1.7 | 2.6 | 0.00 | 0.13 | 0.00 | 36 | 996.5 |
| 20260904032805 | 74 | 261 | 1.7 | 4.3 | 0.00 | 0.13 | 0.00 | 34 | 996.5 |
| 20260904032306 | 74 | 268 | 0.9 | 2.6 | 0.00 | 0.13 | 0.00 | 33 | 996.5 |
| 20260904031304 | 76 | 252 | 2.6 | 5.2 | 0.00 | 0.13 | 0.00 | 30 | 996.4 |
| 20260904030805 | 76 | 284 | 2.6 | 4.3 | 0.00 | 0.13 | 0.00 | 30 | 996.4 |
| 20260904030304 | 78 | 36 | 2.6 | 7.0 | 0.00 | 0.13 | 0.00 | 29 | 996.2 |
| 20260904025306 | 79 | 64 | 5.2 | 8.7 | 0.00 | 0.13 | 0.00 | 27 | 996.1 |
| 20260904024804 | 79 | 61 | 5.2 | 8.7 | 0.00 | 0.13 | 0.00 | 26 | 996.2 |
| 20260904022306 | 80 | 55 | 4.3 | 7.0 | 0.00 | 0.13 | 0.00 | 25 | 995.9 |
| 20260904021804 | 81 | 75 | 2.6 | 5.2 | 0.00 | 0.13 | 0.00 | 25 | 995.9 |
| 20260904021305 | 81 | 67 | 2.6 | 7.0 | 0.00 | 0.13 | 0.00 | 25 | 995.8 |
| 20260904013804 | 82 | 22 | 2.6 | 5.2 | 0.00 | 0.13 | 0.00 | 24 | 995.8 |
| 20260904013305 | 82 | 20 | 2.6 | 6.1 | 0.00 | 0.13 | 0.00 | 25 | 995.8 |
| 20260904012805 | 83 | 34 | 2.6 | 6.1 | 0.00 | 0.13 | 0.00 | 23 | 995.9 |
| 20260904011804 | 84 | 56 | 3.5 | 7.0 | 0.00 | 0.13 | 0.00 | 23 | 995.9 |
| 20260904011305 | 84 | 43 | 4.3 | 6.1 | 0.00 | 0.13 | 0.00 | 23 | 996.0 |
| 20260904005805 | 86 | 40 | 4.3 | 10.4 | 0.00 | 0.13 | 0.00 | 22 | 995.9 |
| 20260904004305 | 86 | 49 | 4.3 | 8.7 | 0.00 | 0.13 | 0.00 | 22 | 996.1 |
| 20260904003804 | 87 | 65 | 3.5 | 8.7 | 0.00 | 0.13 | 0.00 | 22 | 996.0 |
| 20260904003304 | 88 | 56 | 4.3 | 8.7 | 0.00 | 0.13 | 0.00 | 21 | 996.0 |
| 20260904002306 | 88 | 70 | 7.8 | 13.0 | 0.00 | 0.13 | 0.00 | 21 | 996.0 |
| 20260904000804 | 88 | 79 | 5.2 | 11.3 | 0.00 | 0.13 | 0.00 | 21 | 995.9 |
| 20260904000304 | 88 | 80 | 7.0 | 12.2 | 0.00 | 0.13 | 0.00 | 20 | 995.9 |
| 20260903234305 | 89 | 89 | 6.1 | 13.0 | 0.00 | 0.13 | 0.00 | 21 | 996.0 |
| 20260903233805 | 89 | 76 | 6.1 | 11.3 | 0.00 | 0.13 | 0.00 | 21 | 995.9 |
| 20260903233305 | 89 | 103 | 7.8 | 13.0 | 0.00 | 0.13 | 0.00 | 20 | 995.9 |
| 20260903232805 | 89 | 99 | 7.8 | 10.4 | 0.00 | 0.13 | 0.00 | 20 | 996.0 |
| 20260903231805 | 90 | 100 | 6.1 | 11.3 | 0.00 | 0.13 | 0.00 | 21 | 995.9 |
| 20260903231305 | 90 | 106 | 7.8 | 13.0 | 0.00 | 0.13 | 0.00 | 19 | 995.9 |
| 20260903230804 | 91 | 74 | 4.3 | 11.3 | 0.00 | 0.13 | 0.00 | 20 | 995.9 |
| 20260903225306 | 92 | 71 | 7.8 | 13.0 | 0.00 | 0.13 | 0.00 | 18 | 995.9 |
| 20260903224805 | 92 | 118 | 5.2 | 10.4 | 0.00 | 0.13 | 0.00 | 19 | 995.9 |
| 20260903220804 | 90 | 92 | 2.6 | 5.2 | 0.00 | 0.13 | 0.00 | 19 | 996.2 |
| 20260903215804 | 90 | 26 | 2.6 | 10.4 | 0.00 | 0.13 | 0.00 | 19 | 996.3 |
| 20260903215306 | 90 | 61 | 4.3 | 11.3 | 0.00 | 0.13 | 0.00 | 19 | 996.4 |
| 20260903214304 | 90 | 347 | 3.5 | 6.1 | 0.00 | 0.13 | 0.00 | 18 | 996.5 |
| 20260903213305 | 90 | 70 | 5.2 | 10.4 | 0.00 | 0.13 | 0.00 | 19 | 996.6 |
| 20260903212804 | 90 | 39 | 6.1 | 11.3 | 0.00 | 0.13 | 0.00 | 21 | 996.6 |
| 20260903211804 | 89 | 60 | 4.3 | 10.4 | 0.00 | 0.13 | 0.00 | 20 | 996.7 |
| 20260903211305 | 89 | 54 | 7.8 | 13.0 | 0.00 | 0.13 | 0.00 | 20 | 997.0 |
| 20260903210305 | 88 | 56 | 4.3 | 11.3 | 0.00 | 0.13 | 0.00 | 21 | 997.1 |
| 20260903205805 | 88 | 46 | 4.3 | 7.0 | 0.00 | 0.13 | 0.00 | 21 | 997.2 |
| 20260903204804 | 89 | 104 | 5.2 | 10.4 | 0.00 | 0.13 | 0.00 | 20 | 997.4 |
| 20260903204305 | 90 | 70 | 6.1 | 12.2 | 0.00 | 0.13 | 0.00 | 21 | 997.5 |
| 20260903203805 | 88 | 86 | 4.3 | 11.3 | 0.00 | 0.13 | 0.00 | 21 | 997.4 |
| 20260903202306 | 89 | 18 | 4.3 | 7.8 | 0.00 | 0.13 | 0.00 | 22 | 997.5 |
| 20260903201805 | 89 | 130 | 4.3 | 8.7 | 0.00 | 0.13 | 0.00 | 19 | 997.6 |
| 20260903201304 | 88 | 65 | 4.3 | 10.4 | 0.00 | 0.13 | 0.00 | 18 | 997.8 |
| 20260903200805 | 88 | 83 | 5.2 | 11.3 | 0.00 | 0.13 | 0.00 | 21 | 997.8 |
| 20260903195804 | 88 | 29 | 5.2 | 10.4 | 0.00 | 0.13 | 0.00 | 21 | 998.0 |
| 20260903194804 | 87 | 48 | 5.2 | 8.7 | 0.00 | 0.13 | 0.00 | 22 | 998.2 |
| 20260903194304 | 87 | 28 | 2.6 | 11.3 | 0.00 | 0.13 | 0.00 | 21 | 998.2 |
| 20260903193305 | 87 | 72 | 7.8 | 13.0 | 0.00 | 0.13 | 0.00 | 22 | 998.2 |
| 20260903192804 | 87 | 87 | 5.2 | 10.4 | 0.00 | 0.13 | 0.00 | 23 | 998.3 |
| 20260903191304 | 86 | 199 | 1.7 | 8.7 | 0.00 | 0.13 | 0.00 | 25 | 998.5 |
| 20260903190304 | 87 | 106 | 5.2 | 10.4 | 0.00 | 0.13 | 0.00 | 22 | 998.6 |
| 20260903185306 | 87 | 78 | 3.5 | 10.4 | 0.00 | 0.13 | 0.00 | 23 | 998.7 |
| 20260903184805 | 87 | 111 | 4.3 | 7.8 | 0.00 | 0.13 | 0.00 | 25 | 998.7 |
| 20260903184304 | 87 | 83 | 0.9 | 2.6 | 0.00 | 0.13 | 0.00 | 25 | 998.9 |
| 20260903183805 | 86 | 119 | 5.2 | 10.4 | 0.00 | 0.13 | 0.00 | 24 | 999.0 |
| 20260903182306 | 85 | 85 | 5.2 | 7.0 | 0.00 | 0.13 | 0.00 | 24 | 999.4 |
| 20260903181804 | 86 | 100 | 5.2 | 10.4 | 0.00 | 0.13 | 0.00 | 25 | 999.6 |
| 20260903181304 | 86 | 105 | 4.3 | 7.8 | 0.00 | 0.13 | 0.00 | 27 | 999.6 |
| 20260903180805 | 84 | 94 | 3.5 | 7.8 | 0.00 | 0.13 | 0.00 | 28 | 999.7 |
| 20260903175805 | 84 | 28 | 3.5 | 5.2 | 0.00 | 0.13 | 0.00 | 24 | 999.8 |
| 20260903174305 | 83 | 42 | 2.6 | 7.0 | 0.00 | 0.13 | 0.00 | 26 | 1000.0 |
| 20260903173804 | 83 | 58 | 3.5 | 7.0 | 0.00 | 0.13 | 0.00 | 28 | 1000.1 |
| 20260903173304 | 83 | 89 | 4.3 | 6.1 | 0.00 | 0.13 | 0.00 | 28 | 1000.1 |
| 20260903172804 | 82 | 61 | 2.6 | 6.1 | 0.00 | 0.13 | 0.00 | 28 | 1000.2 |
| 20260903172306 | 83 | 92 | 5.2 | 10.4 | 0.00 | 0.13 | 0.00 | 29 | 1000.2 |
| 20260903171805 | 82 | 114 | 6.1 | 7.8 | 0.00 | 0.13 | 0.00 | 29 | 1000.2 |